Find Starlink 2682

NORAD ID: 48440 Int'l Des: 2021-040 Owner: SPXS Country: US Constellation: starlink operational
LEOCIRCULAR

Live Position

Loading 3D Globe...

About Starlink 2682

Description loading...

Upcoming Passes

Passes for default location (London). Set your location on the main map for personalized predictions.

Altitude History

Loading altitude history...

Two-Line Element Set

1 48440U 21040N 26107.25374619 .00002263 00000-0 84655-4 0 9995
2 48440 53.1603 358.9311 0001139 89.4606 270.6526 15.31709993272586
Epoch: Apr 17, 2026 • Age: 10 hours

Current Status

Altitude 473.0 km
Velocity 7.63 km/s
Sub-Earth Point 36.51°N, 50.65°W
Launch Date May 9, 2021
Age 4.9 years
Type internet

Technical Details

Classification Payload
Mass 260.00 kg
Dry Mass 248.00 kg
Total Mass 260.00 kg
Length 0.20 m
Diameter 2.80 m
Span 9.00 m
Shape Box + pan
Manufacturer SPXS
Bus Type Starlink
Phase Status In Orbit
Owner/State SPXS/US

Most Searched